Home   Weather   Chino   Past weeks
Flag for USA

Past Weather in Chino, California, USA — Yesterday and Last 2 Weeks

Now
58 °F

Clear.


Feels Like: 58 °F
Forecast: 85 / 57 °F
Wind: No wind

Location: Chino Airport

Current Time: Apr 19, 2019 at 1:57:33 am

Latest Report: Apr 19, 2019 at 12:53 am


Visibility: 9 mi

Pressure: 30.03 "Hg

Humidity: 78%

Dew Point: 51 °F

Location of ChinoLocation

Past Weather in Chino — Graph

°F

Chino Temperature Yesterday

Maximum temperature yesterday: 87 °F (at 2:53 pm)
Minimum temperature yesterday: 50 °F (at 4:53 am)
Average temperature yesterday: 68 °F

High & Low Weather Summary for the Past Weeks

 TemperatureHumidityPressure
High88 °F (Apr 8, 2:53 pm)100% (Apr 4, 1:53 am)30.18 "Hg (Apr 4, 1:53 am)
Low44 °F (Apr 11, 5:53 am)17% (Apr 10, 12:53 pm)29.74 "Hg (Apr 12, 3:53 pm)
Average61 °F64%30.00 "Hg
* Reported Apr 3 11:53 pm — Apr 18 11:53 pm, Chino. Weather by CustomWeather, © 2019

Note: Actual official high and low records may vary slightly from our data, if they occured in-between our weather recording intervals... More about our weather records

Advertising

Chino Weather History for the Previous 24 Hours

Scroll right to see more
 ConditionsComfort  
Time TempWeatherWind HumidityBarometerVisibility
11:53 pm
Thu, Apr 18
60 °FClear.No wind67%30.03 "Hg10 mi
10:53 pm62 °FClear.No wind65%30.03 "Hg10 mi
9:53 pm64 °FClear.No wind56%30.04 "Hg10 mi
8:53 pm67 °FClear.5 mph47%30.02 "Hg10 mi
7:53 pm69 °FPassing clouds.8 mph47%30.00 "Hg10 mi
6:53 pm77 °FSunny.15 mph31%29.98 "Hg10 mi
5:53 pm81 °FPassing clouds.13 mph35%29.98 "Hg10 mi
4:53 pm85 °FScattered clouds.15 mph31%29.98 "Hg10 mi
3:53 pm87 °FScattered clouds.13 mph27%29.99 "Hg10 mi
2:53 pm87 °FScattered clouds.13 mph29%30.02 "Hg10 mi
1:53 pm86 °FScattered clouds.8 mph30%30.04 "Hg10 mi
12:53 pm85 °FScattered clouds.6 mph21%30.05 "Hg10 mi
11:53 am80 °FScattered clouds.No wind30%30.08 "Hg10 mi
10:53 am75 °FScattered clouds.No wind37%30.09 "Hg10 mi
9:53 am70 °FScattered clouds.No wind46%30.11 "Hg10 mi
8:53 am63 °FScattered clouds.3 mph60%30.12 "Hg10 mi
7:53 am58 °FPartly sunny.No wind75%30.13 "Hg10 mi
6:53 am51 °FScattered clouds.No wind89%30.12 "Hg10 mi
4:53 am50 °FClear.No wind89%30.10 "Hg10 mi
3:53 am52 °FClear.3 mph86%30.11 "Hg10 mi
2:53 am53 °FClear.5 mph86%30.11 "Hg10 mi
1:53 am54 °FClear.No wind80%30.12 "Hg10 mi
Weather by CustomWeather, © 2019

See weather overview